EUTELSAT 9B

Last updated on Sun Nov 16 2025 00:03:43 GMT+0000 (Coordinated Universal Time)

1 41310U 16005A 25319.35322574 .00000068 00000+0 00000+0 0 9994 2 41310 0.0615 76.9133 0004389 179.8882 294.0558 1.00270666 35974
UTC large
Height (km)
Speed (km/s)
/
Latitude / Longitude
Inclination (degrees)
Orbital Period (minutes)
Azimuth
Elevation
Range (km)
Doppler Factor

Next 0 passes for location: London (51.5072 / 0.1276)

Sorry there are no passes over London.